Location: Newark
(13.0000°N, 151.6000°E)
Time: 10:02:44
(UTC+00:00)

Hubble Space Telescope - Pass Details

Date: 16 April 2020
Orbit: 536 x 540 km, 28.5° (Epoch: 01 June)

Event Time Altitude Azimuth Distance (km) Brightness Sun altitude
Rises 09:48:47 0° 309° (NW) 2,661 5.4 -25.0°
Reaches altitude 10° 09:51:17 10° 321° (NW) 1,771 4.1 -25.6°
Enters shadow 09:53:48 25° 355° (N) 1,097 2.5 -26.1°
